GW2696 Weather Reports


time (UTC)temp
C
wind
direction
speed
KPH
gust
KPH
rain 1hr
cm
rain 24hr
cm
rain mn
cm
humidity
%
barometer
mb
20260502224217 20 180 1.6 4.8 0.00 0.00 0.00 17 1019.1
20260502223238 20 23 4.8 6.4 0.00 0.00 0.00 18 1019.7
20260502222218 20 113 3.2 4.8 0.00 0.00 0.00 18 1020.4
20260502221218 21 315 6.4 8.0 0.00 0.00 0.00 17 1021.1
20260502220217 21 90 1.6 3.2 0.00 0.00 0.00 17 1020.9
20260502215238 21 180 4.8 8.0 0.00 0.00 0.00 17 1021.0
20260502214217 20 338 1.6 3.2 0.00 0.00 0.00 18 1020.9
20260502213218 20 0 3.2 6.4 0.00 0.00 0.00 19 1020.7
20260502212217 20 180 1.6 6.4 0.00 0.00 0.00 18 1021.0
20260502211217 19 90 4.8 6.4 0.00 0.00 0.00 19 1021.1
20260502210217 20 45 4.8 6.4 0.00 0.00 0.00 18 1022.1
20260502205218 20 90 3.2 9.7 0.00 0.00 0.00 19 1022.2
20260502204218 19 45 8.0 16.1 0.00 0.00 0.00 19 1021.9
20260502203218 20 23 3.2 4.8 0.00 0.00 0.00 17 1022.4
20260502202217 19 113 4.8 6.4 0.00 0.00 0.00 20 1022.2
20260502201217 18 90 4.8 8.0 0.00 0.00 0.00 20 1022.2
20260502200338 18 0 6.4 12.9 0.00 0.00 0.00 20 1022.3
20260502195238 18 68 3.2 8.0 0.00 0.00 0.00 21 1021.9
20260502194217 18 68 6.4 17.7 0.00 0.00 0.00 20 1022.1
20260502193218 19 23 4.8 12.9 0.00 0.00 0.00 19 1023.1
20260502192217 20 0.0 1.6 0.00 0.00 0.00 20 1023.4
20260502191217 18 68 3.2 4.8 0.00 0.00 0.00 21 1023.2
20260502190218 18 0 4.8 6.4 0.00 0.00 0.00 19 1024.1
20260502185217 18 68 6.4 11.3 0.00 0.00 0.00 20 1023.9
20260502184217 18 113 3.2 4.8 0.00 0.00 0.00 20 1024.4
20260502183238 18 203 6.4 9.7 0.00 0.00 0.00 20 1024.5
20260502182238 17 158 3.2 8.0 0.00 0.00 0.00 21 1024.1
20260502181217 17 113 4.8 9.7 0.00 0.00 0.00 22 1023.8
20260502180217 17 338 4.8 6.4 0.00 0.00 0.00 21 1023.7
20260502170218 16 0.0 3.2 0.00 0.00 0.00 25 1024.2
20260502164237 15 90 1.6 4.8 0.00 0.00 0.00 23 1023.8
20260502163217 15 23 3.2 12.9 0.00 0.00 0.00 22 1023.7
20260502162217 15 68 3.2 6.4 0.00 0.00 0.00 24 1023.8
20260502161217 15 0.0 1.6 0.00 0.00 0.00 21 1023.7
20260502160217 15 90 1.6 4.8 0.00 0.00 0.00 20 1024.2
20260502152217 12 45 1.6 3.2 0.00 0.00 0.00 23 1023.3
20260502151217 11 0.0 0.0 0.00 0.00 0.00 22 1022.8
20260502150217 11 0.0 3.2 0.00 0.00 0.00 22 1022.6
20260502130220 0 0.0 0.0 0.00 0.00 0.00 46 1018.1
20260502123219 0 0.0 0.0 0.00 0.00 0.00 46 1017.6
20260502122219 0 0.0 0.0 0.00 0.00 0.00 46 1017.3
20260502121218 0 0.0 0.0 0.00 0.00 0.00 46 1017.3
20260502120218 0 0.0 0.0 0.00 0.00 0.00 46 1017.7
20260502115239 0 0.0 0.0 0.00 0.00 0.00 46 1017.7
20260502114218 1 0.0 0.0 0.00 0.00 0.00 46 1017.7
20260502113239 1 0.0 0.0 0.00 0.00 0.00 45 1018.6
20260502112218 1 0.0 0.0 0.00 0.00 0.00 46 1018.7
20260502111239 2 0.0 0.0 0.00 0.00 0.00 44 1018.7
20260502110219 2 0.0 0.0 0.00 0.00 0.00 43 1019.3
20260502105219 3 0.0 0.0 0.00 0.00 0.00 42 1019.2
20260502104240 4 0.0 0.0 0.00 0.00 0.00 40 1019.6
20260502103218 5 0.0 0.0 0.00 0.00 0.00 38 1020.1
20260502102218 5 0.0 0.0 0.00 0.00 0.00 38 1020.1
20260502101218 5 0.0 0.0 0.00 0.00 0.00 36 1020.1
20260502100218 6 0.0 0.0 0.00 0.00 0.00 35 1020.4
20260502091218 5 293 3.2 4.8 0.00 0.00 0.00 33 1019.5
20260502090218 5 0.0 0.0 0.00 0.00 0.00 35 1019.5
20260502071218 7 0.0 0.0 0.00 0.00 0.00 37 1021.4
20260502070327 7 0.0 0.0 0.00 0.00 0.00 36 1021.3
20260502065217 8 0.0 0.0 0.00 0.00 0.00 35 1021.4
20260502064217 8 0.0 0.0 0.00 0.00 0.00 34 1021.7
20260502063217 8 0.0 0.0 0.00 0.00 0.00 34 1021.2
20260502062217 8 338 1.6 3.2 0.00 0.00 0.00 33 1021.1
20260502061217 8 0.0 0.0 0.00 0.00 0.00 33 1021.0
20260502060217 8 0.0 0.0 0.00 0.00 0.00 34 1021.4
20260502055218 8 338 3.2 8.0 0.00 0.00 0.00 35 1020.9
20260502054217 8 315 1.6 3.2 0.00 0.00 0.00 36 1020.9
20260502053217 8 315 3.2 4.8 0.00 0.00 0.00 37 1020.9
20260502052219 8 315 1.6 3.2 0.00 0.00 0.00 37 1020.8
20260502051217 8 0.0 0.0 0.00 0.00 0.00 37 1020.6
20260502050217 8 0.0 0.0 0.00 0.00 0.00 37 1019.6
20260502045217 8 0.0 0.0 0.00 0.00 0.00 36 1020.0
20260502044217 8 0.0 0.0 0.00 0.00 0.00 35 1019.9
20260502043238 9 0.0 0.0 0.00 0.00 0.00 35 1019.7
20260502042237 9 0.0 0.0 0.00 0.00 0.00 34 1019.7
20260502041217 9 0.0 0.0 0.00 0.00 0.00 35 1019.7
20260502040217 9 0.0 1.6 0.00 0.00 0.00 35 1019.0
20260502035217 10 338 3.2 4.8 0.00 0.00 0.00 36 1018.9
20260502034217 10 338 1.6 3.2 0.00 0.00 0.00 36 1018.8
20260502033217 10 315 6.4 12.9 0.00 0.00 0.00 36 1018.7
20260502032219 10 338 3.2 4.8 0.00 0.00 0.00 35 1018.6
20260502031217 10 315 3.2 4.8 0.00 0.00 0.00 35 1018.4
20260502030217 10 338 4.8 8.0 0.00 0.00 0.00 34 1017.7
20260502025217 11 338 8.0 9.7 0.00 0.00 0.00 33 1017.6
20260502024217 11 338 4.8 11.3 0.00 0.00 0.00 33 1017.9
20260502023217 11 0.0 0.0 0.00 0.00 0.00 33 1016.9
20260502022217 11 0 3.2 4.8 0.00 0.00 0.00 32 1016.6
20260502021217 11 23 1.6 4.8 0.00 0.00 0.00 31 1016.3
20260502020217 12 0 9.7 19.3 0.00 0.00 0.00 30 1016.2
20260502015217 12 23 6.4 17.7 0.00 0.00 0.00 29 1016.2
20260502014237 12 23 6.4 9.7 0.00 0.00 0.00 29 1016.3
20260502013218 12 23 6.4 12.9 0.00 0.00 0.00 29 1016.0
20260502012216 13 0.0 1.6 0.00 0.00 0.00 28 1016.0
20260502011217 13 23 8.0 12.9 0.00 0.00 0.00 28 1015.7
20260502010238 13 315 8.0 11.3 0.00 0.00 0.00 28 1015.5
20260502005238 13 23 4.8 8.0 0.00 0.00 0.00 27 1015.4
20260502004216 13 338 6.4 12.9 0.00 0.00 0.00 26 1015.3
20260502003219 14 315 9.7 16.1 0.00 0.00 0.00 25 1015.6
20260502002219 14 0.0 0.0 0.00 0.00 0.00 24 1015.4
20260502001218 14 0 4.8 11.3 0.00 0.00 0.00 24 1015.3
20260502000219 15 0.0 1.6 0.00 0.00 0.00 24 1014.7
20260501235219 15 0.0 0.0 0.00 0.00 0.00 25 1014.6
20260501234218 15 90 1.6 6.4 0.00 0.00 0.00 25 1014.5
20260501233219 15 68 1.6 4.8 0.00 0.00 0.00 25 1014.0
20260501232219 15 23 6.4 14.5 0.00 0.00 0.00 25 1013.9
20260501231218 15 158 6.4 11.3 0.00 0.00 0.00 24 1014.1
20260501230218 16 0.0 1.6 0.00 0.00 0.00 23 1013.4
20260501225218 16 0.0 0.0 0.00 0.00 0.00 23 1013.4